Retour au catalogue

HULIANWANG DIGUI-145

ActifCommunicationsLEO
NORAD 67443·PAYLOAD·🇨🇳 China

Lancé Jan 13, 2026 depuis Wenchang Space Launch Site

Loading…

Prochains Passages (prochaines 24 heures)

TLE

FraisSource: Space-Track

Époque: Sep 14, 2026, 13:51 UTC

1 67443U 26007J   26257.57765121 -.00000084  00000-0  86114-4 0  9992
2 67443  50.0084 124.9429 0000418   7.6950 352.3929 13.29329489 32686

Suivez HULIANWANG DIGUI-145 en temps réel avec AllMySat

Download on the App Store